Weather History for KMOX - August, 2013

Change the Weather History Date:

Friday, August 23, 2013

  Actual Average Record
Temperature  
Mean Temperature 68 °F -  
Max Temperature 84 °F 76 °F 87 °F (2001)
Min Temperature 53 °F 54 °F 46 °F (1996)
Cooling Degree Days 4    
Growing Degree Days 18 (Base 50)    
Moisture  
Dew Point 62 °F    
Average Humidity 75    
Maximum Humidity 94    
Minimum Humidity 54    
Precipitation  
Precipitation 0.00 in - - ()
Sea Level Pressure  
Sea Level Pressure 30.05 in    
Wind  
Wind Speed 8 mph (SE)    
Max Wind Speed 16 mph    
Max Gust Speed 23 mph    
Visibility 10 miles    
Events      
Averages and records for this station are not official NWS values.
T = Trace of Precipitation, MM = Missing Value Source: NWS Daily Summary

Daily Weather History Graph

Daily Weather History Graph

Search for Another Location

Airport or City:

Trip Planner

Search our weather history database for the weather conditions in past years. The results will help you decide how hot, cold, wet, or windy it might be!

Date:

Astronomy

Aug. 23, 2013 Rise Set
Actual Time 6:34 AM CDT 8:17 PM CDT
Civil Twilight 6:03 AM CDT 8:48 PM CDT
Nautical Twilight 5:24 AM CDT 9:26 PM CDT
Astronomical Twilight 4:43 AM CDT 10:08 PM CDT
Moon 9:23 PM CDT (8/23) 9:43 AM CDT (8/23)
Length of Visible Light 14h 45m
Length of Day
13h 42m
Waning Gibbous, 91% of the Moon is Illuminated
Aug 23
Waning Gibbous
Aug 28
Last Quarter
Sep 5
New
Sep 12
First Quarter
Sep 19
Full

Hourly Weather History & Observations

Time (CDT) Temp. Heat Index Dew Point Humidity Pressure Visibility Wind Dir Wind Speed Gust Speed Precip Events Conditions
12:08 AM 59.0 °F - 55.4 °F 88% 30.13 in 10.0 mi NE 4.6 mph - N/A   Clear
12:28 AM 59.0 °F - 55.4 °F 88% 30.13 in 10.0 mi Calm Calm - N/A   Clear
12:48 AM 60.8 °F - 55.4 °F 82% 30.12 in 10.0 mi Calm Calm - N/A   Clear
1:08 AM 59.0 °F - 55.4 °F 88% 30.12 in 10.0 mi Calm Calm - N/A   Clear
1:28 AM 59.0 °F - 53.6 °F 82% 30.12 in 10.0 mi East 3.5 mph - N/A   Clear
1:48 AM 57.2 °F - 53.6 °F 88% 30.12 in 10.0 mi East 4.6 mph - N/A   Clear
2:08 AM 55.4 °F - 51.8 °F 88% 30.11 in 10.0 mi East 6.9 mph - N/A   Clear
2:28 AM 55.4 °F - 53.6 °F 94% 30.11 in 10.0 mi East 8.1 mph - N/A   Clear
2:48 AM 55.4 °F - 53.6 °F 94% 30.11 in 10.0 mi East 6.9 mph - N/A   Clear
3:08 AM 57.2 °F - 53.6 °F 88% 30.11 in 10.0 mi ESE 5.8 mph - N/A   Clear
3:28 AM 55.4 °F - 51.8 °F 88% 30.10 in 10.0 mi ESE 5.8 mph - N/A   Clear
3:48 AM 55.4 °F - 51.8 °F 88% 30.11 in 10.0 mi ESE 5.8 mph - N/A   Clear
4:08 AM 55.4 °F - 51.8 °F 88% 30.11 in 10.0 mi ESE 6.9 mph - N/A   Clear
4:28 AM 55.4 °F - 51.8 °F 88% 30.11 in 10.0 mi ESE 6.9 mph - N/A   Clear
4:48 AM 55.4 °F - 51.8 °F 88% 30.11 in 10.0 mi SE 5.8 mph - N/A   Clear
5:08 AM 53.6 °F - 50.0 °F 88% 30.11 in 10.0 mi ESE 5.8 mph - N/A   Clear
5:28 AM 53.6 °F - 50.0 °F 88% 30.11 in 10.0 mi ESE 5.8 mph - N/A   Clear
5:48 AM 53.6 °F - 50.0 °F 88% 30.11 in 10.0 mi ESE 6.9 mph - N/A   Clear
6:08 AM 53.6 °F - 50.0 °F 88% 30.11 in 10.0 mi SE 5.8 mph - N/A   Clear
6:28 AM 53.6 °F - 50.0 °F 88% 30.11 in 10.0 mi SE 5.8 mph - N/A   Clear
6:48 AM 53.6 °F - 51.8 °F 94% 30.11 in 10.0 mi SSE 5.8 mph - N/A   Clear
7:08 AM 55.4 °F - 51.8 °F 88% 30.12 in 10.0 mi SE 5.8 mph - N/A   Clear
7:28 AM 57.2 °F - 53.6 °F 88% 30.12 in 10.0 mi SE 5.8 mph - N/A   Clear
7:48 AM 59.0 °F - 53.6 °F 82% 30.11 in 10.0 mi SE 4.6 mph - N/A   Clear
8:08 AM 62.6 °F - 55.4 °F 77% 30.11 in 10.0 mi SE 4.6 mph - N/A   Clear
8:28 AM 64.4 °F - 55.4 °F 73% 30.11 in 10.0 mi SE 6.9 mph - N/A   Clear
8:48 AM 66.2 °F - 57.2 °F 73% 30.11 in 10.0 mi SE 5.8 mph - N/A   Clear
9:08 AM 66.2 °F - 57.2 °F 73% 30.11 in 10.0 mi SE 9.2 mph - N/A   Clear
9:28 AM 68.0 °F - 57.2 °F 68% 30.11 in 10.0 mi SE 5.8 mph - N/A   Clear
9:48 AM 69.8 °F - 57.2 °F 64% 30.10 in 10.0 mi SE 8.1 mph - N/A   Clear
10:08 AM 71.6 °F - 57.2 °F 60% 30.09 in 10.0 mi SE 6.9 mph - N/A   Clear
10:28 AM 73.4 °F - 60.8 °F 65% 30.09 in 10.0 mi SE 6.9 mph - N/A   Clear
10:48 AM 75.2 °F - 60.8 °F 61% 30.08 in 10.0 mi SE 9.2 mph - N/A   Clear
11:08 AM 77.0 °F - 62.6 °F 61% 30.08 in 10.0 mi SE 9.2 mph - N/A   Clear
11:28 AM 78.8 °F - 62.6 °F 57% 30.07 in 10.0 mi SE 10.4 mph - N/A   Clear
11:48 AM 78.8 °F - 62.6 °F 57% 30.07 in 10.0 mi SE 11.5 mph 16.1 mph N/A   Clear
12:08 PM 80.6 °F 82.3 °F 64.4 °F 58% 30.06 in 10.0 mi SE 13.8 mph 18.4 mph N/A   Clear
12:28 PM 80.6 °F 81.8 °F 62.6 °F 54% 30.06 in 10.0 mi SE 16.1 mph - N/A   Clear
12:48 PM 80.6 °F 82.3 °F 64.4 °F 58% 30.05 in 10.0 mi SE 10.4 mph 17.3 mph N/A   Clear
1:08 PM 82.4 °F 83.9 °F 64.4 °F 54% 30.04 in 10.0 mi SE 15.0 mph 18.4 mph N/A   Clear
1:28 PM 82.4 °F 83.9 °F 64.4 °F 54% 30.04 in 10.0 mi SSE 13.8 mph - N/A   Clear
1:48 PM 82.4 °F 84.6 °F 66.2 °F 58% 30.04 in 10.0 mi SSE 12.7 mph 23.0 mph N/A   Clear
2:08 PM 82.4 °F 85.4 °F 68.0 °F 62% 30.03 in 10.0 mi SE 15.0 mph 18.4 mph N/A   Scattered Clouds
2:28 PM 82.4 °F 85.4 °F 68.0 °F 62% 30.03 in 10.0 mi SSE 15.0 mph 20.7 mph N/A   Scattered Clouds
2:48 PM 82.4 °F 85.4 °F 68.0 °F 62% 30.01 in 10.0 mi SE 16.1 mph 21.9 mph N/A   Scattered Clouds
3:08 PM 84.2 °F 87.3 °F 68.0 °F 58% 30.01 in 10.0 mi SSE 15.0 mph - N/A   Clear
3:28 PM 84.2 °F 87.3 °F 68.0 °F 58% 30.01 in 10.0 mi SSE 15.0 mph 19.6 mph N/A   Scattered Clouds
3:48 PM 84.2 °F 88.4 °F 69.8 °F 62% 30.00 in 10.0 mi SSE 13.8 mph - N/A   Scattered Clouds
4:08 PM 84.2 °F 88.4 °F 69.8 °F 62% 30.00 in 10.0 mi SSE 11.5 mph 18.4 mph N/A   Scattered Clouds
4:28 PM 82.4 °F 86.3 °F 69.8 °F 66% 30.00 in 10.0 mi SE 13.8 mph 19.6 mph N/A   Scattered Clouds
4:48 PM 84.2 °F 88.4 °F 69.8 °F 62% 29.99 in 10.0 mi SSE 13.8 mph - N/A   Scattered Clouds
5:08 PM 84.2 °F 88.4 °F 69.8 °F 62% 29.98 in 10.0 mi SE 16.1 mph 20.7 mph N/A   Scattered Clouds
5:28 PM 82.4 °F 85.4 °F 68.0 °F 62% 29.98 in 10.0 mi SSE 15.0 mph 23.0 mph N/A   Scattered Clouds
5:48 PM 82.4 °F 86.3 °F 69.8 °F 66% 29.97 in 10.0 mi SSE 16.1 mph 21.9 mph N/A   Clear
6:08 PM 82.4 °F 86.3 °F 69.8 °F 66% 29.97 in 10.0 mi SSE 15.0 mph - N/A   Clear
6:28 PM 82.4 °F 86.3 °F 69.8 °F 66% 29.97 in 10.0 mi SSE 13.8 mph 19.6 mph N/A   Clear
6:48 PM 82.4 °F 86.3 °F 69.8 °F 66% 29.96 in 10.0 mi SSE 16.1 mph 20.7 mph N/A   Clear
7:08 PM 80.6 °F 83.9 °F 69.8 °F 70% 29.96 in 10.0 mi SSE 12.7 mph - N/A   Clear
7:28 PM 80.6 °F 83.9 °F 69.8 °F 70% 29.96 in 10.0 mi SSE 10.4 mph - N/A   Scattered Clouds
7:48 PM 78.8 °F - 69.8 °F 74% 29.96 in 10.0 mi SSE 11.5 mph - N/A   Scattered Clouds
8:08 PM 78.8 °F - 69.8 °F 74% 29.95 in 10.0 mi SE 11.5 mph - N/A   Scattered Clouds
8:28 PM 77.0 °F - 69.8 °F 78% 29.96 in 10.0 mi SE 11.5 mph - N/A   Scattered Clouds
8:48 PM 77.0 °F - 69.8 °F 78% 29.96 in 10.0 mi SE 11.5 mph - N/A   Scattered Clouds
9:08 PM 75.2 °F - 69.8 °F 83% 29.97 in 10.0 mi SE 12.7 mph - N/A   Scattered Clouds
9:28 PM 75.2 °F - 69.8 °F 83% 29.97 in 10.0 mi SE 13.8 mph - N/A   Scattered Clouds
9:48 PM 75.2 °F - 69.8 °F 83% 29.97 in 10.0 mi SE 13.8 mph - N/A   Clear
10:08 PM 75.2 °F - 69.8 °F 83% 29.97 in 10.0 mi SE 13.8 mph 18.4 mph N/A   Clear
10:28 PM 75.2 °F - 69.8 °F 83% 29.96 in 10.0 mi SE 13.8 mph - N/A   Clear
10:48 PM 73.4 °F - 69.8 °F 88% 29.96 in 10.0 mi SE 11.5 mph - N/A   Clear
11:08 PM 73.4 °F - 69.8 °F 88% 29.96 in 10.0 mi SE 12.7 mph - N/A   Clear
11:28 PM 73.4 °F - 69.8 °F 88% 29.96 in 10.0 mi SSE 12.7 mph 17.3 mph N/A   Clear
11:48 PM 73.4 °F - 69.8 °F 88% 29.96 in 10.0 mi SSE 12.7 mph - N/A   Clear